STARLINK-1163 (45069 NORAD) Tracking and Keplerian Element Data

This shows tracking and keplerian element data for the satellite.

Feedback or suggestion? Click here.




ElementValue
Catalog45069
NameSTARLINK-1163
Epoch Orbit406
Epoch Day52.91667824
Epoch Year2020
RAAN118.0313
Inclination52.9973
Eccentricity0.0001167
Argument of Perigee65.927
Mean Anonmoly86.7661
Mean Motion15.75076311
Decay Rate0.00122489
L11 45069U 20006AB 20052.91667824 .00122489 00000-0 79718-3 0 9995
L22 45069 52.9973 118.0313 0001167 65.9270 86.7661 15.75076311 4062

Live tracking and technical data element details for STARLINK-1163 (NORAD 45069). STARLINK-1163 can be tracked NOW for your location showing map with azimuth and elevation plus other details from your city location.

Track the satellite on the map from your city or location and see movement details for azimuth, elevation, latitude, longitude, range, height, and movement on the map or in text.







IsCatalogInMostPopularTable: catalog: 45069, numindb: 5
Update: records affected: 1



GetName: 45069 STARLINK-1163

Hit Count: updated at: Mon, 24 Feb 2020 17:14:32 GMT